Tracking 33407 objects as of 5-Mar-2026
HD Live streaming from Space Station
objects crossing your sky now

COSMOS 621

Track COSMOS 621 now!
10-day predictions
COSMOS 621 is classified as:


NORAD ID: 6989
Int'l Code: 1973-104E
Perigee: 1,412.9 km
Apogee: 1,491.4 km
Inclination: 74.0 °
Period: 114.8 minutes
Semi major axis: 7823 km
RCS: 0.7035 m2 (medium)
Launch date: December 19, 1973
Source: Commonwealth of Independent States (former USSR) (CIS)
Launch site: PLESETSK MISSILE AND SPACE COMPLEX (PKMTR)
Your satellite tracking list
Your tracking list is empty




NASA's NSSDC Master Catalog

Two Line Element Set (TLE):
1 06989U 73104E   26064.28160392 -.00000028  00000-0 -71053-4 0  9998
2 06989  74.0257 245.4165 0050197   2.0211 171.0703 12.54675485391227
Source of the keplerian elements: AFSPC